Location: *
(34.0486°S, 61.7880°E)
Time: 21:34:57
(UTC+00:00)

Orbus 7S - Pass Details

Date: 01 April 2020
Orbit: 366 x 11859 km, 27.2° (Epoch: 02 June)

Event Time Altitude Azimuth Distance (km) Brightness Sun altitude
Rises 14:38:31 0° 283° (WNW) 3,018 8.8 -11.4°
Reaches altitude 10° 14:41:33 10° 298° (WNW) 1,602 6.7 -12.0°
Maximum altitude 14:44:03 23° 355° (N) 859 4.3 -12.6°
Enters shadow 14:45:29 15° 41° (NE) 1,103 4.5 -12.9°
